Date String (YYYY-MM-DD hh:mm:ss) UTC,Instrument flags,Ambient pressure (hPa),Sample flow (lpm),Bypass flow (lpm),Sample temperature (°C),Ambient temperature (°C),ASC tube jacket temperature (°C),LED temperature (°C),Box temperature (°C),Sample RH (%),Span deviation,Mass concentration (μg/m³),Mass concentration (μg/m³),Mass concentration (μg/m³)
DateTimeUTC,F1_M11,P_M11,Q1_M11,Q2_M11,T1_M11,T2_M11,T3_M11,T4_M11,T5_M11,U1_M11,ZSPAN_M11,X0_M11,X2_M11,X1_M11
2023-01-04 07:00:00,,0817.4,5.00,0.00,22.5,21.1,00.0,31.3,24.2,11.6,-000.8,0020.53,0018.27,0018.03
2023-01-04 07:01:00,,0817.4,4.99,0.00,22.4,21.0,00.0,31.3,24.1,11.6,-000.3,0020.54,0018.34,0018.10
2023-01-04 07:02:00,,0817.5,4.99,0.00,22.4,20.8,00.0,31.3,24.0,11.6,-000.5,0020.65,0018.43,0018.18
2023-01-04 07:03:00,,0817.5,5.01,0.00,22.4,20.7,00.0,31.3,24.0,11.7,-000.2,0020.73,0018.54,0018.30
2023-01-04 07:04:00,,0817.5,5.00,0.00,22.3,20.7,00.0,31.2,24.0,11.6,-000.3,0020.91,0018.66,0018.41
2023-01-04 07:05:00,,0817.4,5.01,0.00,22.3,20.7,00.0,31.2,24.0,11.6,0000.0,0021.10,0018.75,0018.49
2023-01-04 07:06:00,,0817.4,5.00,0.00,22.4,21.5,00.0,31.2,24.2,11.4,-000.2,0021.21,0018.82,0018.56
2023-01-04 07:07:00,,0817.4,5.00,0.00,22.5,22.4,00.0,31.2,24.4,11.3,-000.1,0021.31,0018.88,0018.61
2023-01-04 07:08:00,,0817.4,5.00,0.00,22.6,23.1,00.0,31.2,24.6,11.2,-000.6,0021.49,0018.96,0018.68
2023-01-04 07:09:00,,0817.3,4.99,0.00,22.7,22.7,00.0,31.3,24.6,11.2,-001.1,0021.50,0019.02,0018.77
2023-01-04 07:10:00,,0817.4,4.99,0.00,22.7,22.3,00.0,31.3,24.5,11.2,-001.4,0021.62,0019.11,0018.85
2023-01-04 07:11:00,,0817.4,5.01,0.00,22.6,21.9,00.0,31.3,24.4,11.2,-001.3,0021.83,0019.21,0018.92
2023-01-04 07:12:00,,0817.3,5.00,0.00,22.6,21.6,00.0,31.4,24.3,11.1,-001.1,0021.90,0019.27,0018.98
2023-01-04 07:13:00,,0817.2,5.00,0.00,22.6,21.4,00.0,31.4,24.3,11.1,-001.0,0022.10,0019.32,0019.04
2023-01-04 07:14:00,,0817.4,5.00,0.00,22.6,21.2,00.0,31.4,24.3,11.2,-001.0,0022.38,0019.29,0019.01
2023-01-04 07:15:00,,0817.4,5.01,0.00,22.5,21.1,00.0,31.4,24.2,11.1,-001.0,0022.20,0019.22,0018.95
2023-01-04 07:16:00,,0817.3,5.01,0.00,22.5,21.0,00.0,31.4,24.1,11.0,-001.3,0022.17,0019.22,0018.96
2023-01-04 07:17:00,,0817.2,5.00,0.00,22.5,20.8,00.0,31.3,24.1,11.1,-001.3,0022.07,0019.14,0018.89
2023-01-04 07:18:00,,0817.2,4.98,0.00,22.4,20.7,00.0,31.3,24.1,11.2,-001.3,0021.84,0019.01,0018.78
2023-01-04 07:19:00,,0817.1,5.00,0.00,22.4,20.7,00.0,31.3,24.0,11.3,-000.7,0021.61,0018.90,0018.68
2023-01-04 07:20:00,,0817.1,4.99,0.00,22.4,20.7,00.0,31.3,24.0,11.4,-000.2,0021.48,0018.79,0018.56
2023-01-04 07:21:00,,0817.1,5.02,0.00,22.4,21.5,00.0,31.2,24.2,11.5,-000.4,0021.31,0018.67,0018.44
2023-01-04 07:22:00,,0817.2,4.99,0.00,22.5,22.5,00.0,31.2,24.5,11.4,-000.7,0021.08,0018.52,0018.32
2023-01-04 07:23:00,,0817.1,5.00,0.00,22.6,23.0,00.0,31.3,24.7,11.3,-001.0,0020.89,0018.39,0018.20
2023-01-04 07:24:00,,0817.0,5.00,0.00,22.7,22.6,00.0,31.3,24.6,11.3,-000.8,0020.59,0018.28,0018.09
2023-01-04 07:25:00,,0816.9,5.01,0.00,22.7,22.2,00.0,31.4,24.5,11.3,-000.7,0020.19,0018.25,0018.06
2023-01-04 07:26:00,,0817.0,4.99,0.00,22.6,21.8,00.0,31.4,24.4,11.5,-000.4,0020.16,0018.22,0018.01
2023-01-04 07:27:00,,0817.1,5.00,0.00,22.6,21.4,00.0,31.4,24.3,11.5,-000.1,0020.00,0018.06,0017.86
2023-01-04 07:28:00,,0817.3,5.00,0.00,22.6,21.2,00.0,31.4,24.2,11.4,-000.5,0019.97,0018.02,0017.80
2023-01-04 07:29:00,,0817.3,4.99,0.00,22.5,21.1,00.0,31.4,24.2,11.4,-000.8,0020.15,0018.05,0017.83
2023-01-04 07:30:00,,0817.2,5.00,0.00,22.5,21.0,00.0,31.4,24.2,11.4,-001.6,0020.20,0018.04,0017.82
2023-01-04 07:31:00,,0817.2,5.00,0.00,22.5,21.0,00.0,31.4,24.1,11.2,-001.9,0020.19,0018.02,0017.81
2023-01-04 07:32:00,,0817.3,5.00,0.00,22.5,20.9,00.0,31.4,24.1,11.3,-001.9,0020.14,0018.00,0017.80
2023-01-04 07:33:00,,0817.3,5.00,0.00,22.4,20.8,00.0,31.3,24.0,11.3,-001.5,0020.10,0017.98,0017.78
2023-01-04 07:34:00,,0817.3,5.01,0.00,22.4,20.7,00.0,31.3,24.0,11.1,-001.5,0020.11,0017.97,0017.77
2023-01-04 07:35:00,,0817.4,4.99,0.00,22.3,20.6,00.0,31.3,24.0,11.2,-001.9,0020.17,0017.96,0017.76
2023-01-04 07:36:00,,0817.4,5.00,0.00,22.4,21.5,00.0,31.2,24.2,11.2,-002.1,0020.15,0017.92,0017.73
2023-01-04 07:37:00,,0817.3,4.98,0.00,22.5,22.5,00.0,31.2,24.4,11.3,-001.2,0020.10,0017.86,0017.69
2023-01-04 07:38:00,,0817.2,5.00,0.00,22.6,22.9,00.0,31.3,24.6,11.3,-001.3,0020.05,0017.85,0017.68
2023-01-04 07:39:00,,0817.4,4.99,0.00,22.6,22.4,00.0,31.3,24.5,11.4,-001.3,0020.02,0017.86,0017.69
2023-01-04 07:40:00,,0817.5,5.02,0.00,22.6,21.9,00.0,31.3,24.3,11.4,-002.2,0019.94,0017.84,0017.66
2023-01-04 07:41:00,,0817.5,5.00,0.00,22.6,21.6,00.0,31.4,24.3,11.4,-001.2,0019.97,0017.87,0017.67
2023-01-04 07:42:00,,0817.4,5.00,0.00,22.5,21.4,00.0,31.4,24.2,11.4,-001.6,0020.03,0017.92,0017.71
2023-01-04 07:43:00,,0817.3,5.00,0.00,22.5,21.1,00.0,31.3,24.2,11.4,-001.0,0020.15,0018.01,0017.78
2023-01-04 07:44:00,,0817.3,4.99,0.00,22.5,21.0,00.0,31.3,24.1,11.4,-001.7,0020.27,0018.11,0017.89
2023-01-04 07:45:00,,0817.2,5.00,0.00,22.4,20.9,00.0,31.3,24.1,11.4,-002.3,0020.38,0018.21,0017.99
2023-01-04 07:46:00,,0817.3,5.01,0.00,22.4,20.9,00.0,31.3,24.1,11.4,-002.4,0020.45,0018.29,0018.05
2023-01-04 07:47:00,,0817.2,5.00,0.00,22.4,21.0,00.0,31.3,24.1,11.4,-002.2,0020.56,0018.40,0018.15
2023-01-04 07:48:00,,0817.3,5.00,0.00,22.5,22.0,00.0,31.3,24.3,11.4,-002.1,0020.62,0018.51,0018.25
2023-01-04 07:49:00,,0817.4,4.99,0.00,22.6,22.9,00.0,31.3,24.6,11.4,-002.1,0020.80,0018.65,0018.39
2023-01-04 07:50:00,,0817.4,5.00,0.00,22.7,23.1,00.0,31.3,24.7,11.3,-002.3,0021.07,0018.81,0018.54
2023-01-04 07:51:00,,0817.4,4.99,0.00,22.7,22.6,00.0,31.4,24.6,11.3,-002.4,0021.14,0018.91,0018.66
2023-01-04 07:52:00,,0817.5,5.00,0.00,22.7,22.1,00.0,31.4,24.5,11.2,-002.3,0021.08,0018.96,0018.75
2023-01-04 07:53:00,,0817.5,5.00,0.00,22.7,21.7,00.0,31.4,24.4,11.2,-002.3,0021.10,0019.01,0018.82
2023-01-04 07:54:00,,0817.4,5.00,0.00,22.7,21.5,00.0,31.4,24.3,11.2,-002.5,0021.11,0019.07,0018.89
2023-01-04 07:55:00,,0817.3,5.00,0.00,22.6,21.3,00.0,31.4,24.3,11.2,-002.5,0021.31,0019.14,0018.93
2023-01-04 07:56:00,,0817.4,5.00,0.00,22.6,21.1,00.0,31.4,24.2,11.2,-002.4,0021.32,0019.14,0018.94
2023-01-04 07:57:00,,0817.3,5.00,0.00,22.6,21.0,00.0,31.4,24.2,11.2,-002.2,0021.33,0019.18,0018.99
2023-01-04 07:58:00,,0817.3,5.00,0.00,22.5,20.9,00.0,31.4,24.1,11.4,-002.2,0021.18,0019.17,0018.99
2023-01-04 07:59:00,,0817.5,4.99,0.00,22.5,20.8,00.0,31.4,24.1,11.4,-002.0,0021.07,0019.14,0018.96
